Location: D�derode
(51.8092°N, 10.1065°E)
Time: 05:22:08
(UTC+00:00)

Okean-O - Pass Details

Date: 01 December 2020
Orbit: 639 x 640 km, 98.2° (Epoch: 23 January)

Event Time Altitude Azimuth Distance (km) Brightness Sun altitude
Rises 17:58:31 0° 172° (S) 2,934 6.0 -24.6°
Reaches altitude 10° 18:00:44 10° 176° (S) 2,029 5.2 -25.0°
Maximum altitude 18:05:06 63° 257° (WSW) 718 3.0 -25.7°
Drops below altitude 10° 18:09:32 10° 340° (NNW) 2,046 5.4 -26.3°
Sets 18:11:47 0° 344° (NNW) 2,961 6.2 -26.7°
